Fremont, MI

8:07 PM EDT on October 14, 2019 (GMT -0400)
Fremont

Weather History for KFFX - August, 2019

Change the Weather History Date:

Thursday, August 15, 2019

  Actual Average (KMKG) Record (KMKG)
Temperature  
Mean Temperature 66 °F -  
Max Temperature 73 °F 80 °F 93 °F (1944)
Min Temperature 58 °F 60 °F 40 °F (1929)
Growing Degree Days 16 (Base 50)    
Moisture  
Dew Point 57 °F    
Average Humidity 76    
Maximum Humidity 100    
Minimum Humidity 53    
Precipitation  
Precipitation 0.00 in - - ()
Sea Level Pressure  
Sea Level Pressure 30.00 in    
Wind  
Wind Speed 3 mph (East)    
Max Wind Speed 8 mph    
Max Gust Speed -    
Visibility 10 miles    
Events Rain    
Averages and records for this station are not official NWS values.
T = Trace of Precipitation, MM = Missing Value Source: NWS Daily Summary

Daily Weather History Graph

Daily Weather History Graph

Search for Another Location

Airport or City:

Astronomy

Aug. 15, 2019 Rise Set
Actual Time 6:48 AM EDT 8:47 PM EDT
Civil Twilight 6:17 AM EDT 9:18 PM EDT
Nautical Twilight 5:39 AM EDT 9:56 PM EDT
Astronomical Twilight 4:58 AM EDT 10:37 PM EDT
Moon 9:16 PM EDT 6:40 AM EDT
Length of Visible Light 15h 00m
Length of Day
13h 58m
Full, 100% of the Moon is Illuminated
Aug 15
Full
Aug 23
Last Quarter
Aug 30
New
Sep 5
First Quarter
Sep 14
Full

Hourly Weather History & Observations

Time (EDT) Temp. Dew Point Humidity Pressure Visibility Wind Dir Wind Speed Gust Speed Precip Events Conditions
12:17 AM 64.0 °F 58.1 °F 81% 30.01 in 10.0 mi NE 3.5 mph - N/A   Overcast
12:35 AM 64.0 °F 58.3 °F 82% 30.02 in 10.0 mi Calm Calm - N/A   Overcast
12:55 AM 64.0 °F 59.0 °F 84% 30.03 in 10.0 mi Calm Calm - N/A   Overcast
12:56 AM 64.0 °F 59.0 °F 84% 30.03 in 10.0 mi Calm Calm - N/A   Overcast
1:15 AM 63.5 °F 60.3 °F 89% 30.02 in 10.0 mi Calm Calm - N/A   Overcast
1:20 AM 63.3 °F 60.8 °F 91% 30.02 in 10.0 mi Calm Calm - N/A   Overcast
1:38 AM 63.1 °F 60.1 °F 90% 30.02 in 10.0 mi Calm Calm - N/A Rain Light Rain
1:56 AM 63.1 °F 60.1 °F 90% 30.02 in 10.0 mi SE 5.8 mph - N/A Rain Rain
2:15 AM 61.2 °F 59.7 °F 95% 30.02 in 10.0 mi ESE 5.8 mph - N/A Rain Rain
2:35 AM 60.3 °F 59.2 °F 96% 30.02 in 10.0 mi East 4.6 mph - N/A   Drizzle
2:59 AM 60.1 °F 59.9 °F 99% 30.01 in 10.0 mi East 4.6 mph - N/A   Overcast
3:17 AM 60.3 °F 60.3 °F 100% 30.01 in 10.0 mi East 3.5 mph - N/A   Overcast
3:35 AM 60.4 °F 60.4 °F 100% 30.01 in 10.0 mi Calm Calm - N/A   Overcast
3:36 AM 60.4 °F 60.4 °F 100% 30.01 in 10.0 mi ESE 3.5 mph - N/A   Overcast
3:55 AM 60.8 °F 60.1 °F 97% 30.01 in 10.0 mi ESE 6.9 mph - N/A   Overcast
4:15 AM 59.9 °F 59.0 °F 97% 30.01 in 10.0 mi ESE 4.6 mph - N/A Rain Light Rain
4:38 AM 59.5 °F 59.0 °F 98% 30.01 in 10.0 mi East 3.5 mph - N/A   Overcast
4:56 AM 59.0 °F 58.1 °F 97% 30.01 in 10.0 mi East 6.9 mph - N/A   Drizzle
5:15 AM 58.3 °F 57.2 °F 96% 30.01 in 10.0 mi East 3.5 mph - N/A   Overcast
5:16 AM 58.3 °F 57.2 °F 96% 30.01 in 10.0 mi East 3.5 mph - N/A   Overcast
5:35 AM 58.5 °F 56.8 °F 94% 30.01 in 10.0 mi East 4.6 mph - N/A   Overcast
5:59 AM 58.6 °F 56.3 °F 92% 30.01 in 10.0 mi East 5.8 mph - N/A   Overcast
6:17 AM 58.6 °F 57.2 °F 95% 30.01 in 10.0 mi East 6.9 mph - N/A   Overcast
6:35 AM 59.0 °F 56.7 °F 92% 30.01 in 10.0 mi East 5.8 mph - N/A   Overcast
6:55 AM 59.0 °F 57.2 °F 94% 30.01 in 10.0 mi Calm Calm - N/A   Overcast
6:56 AM 59.0 °F 57.2 °F 94% 30.01 in 10.0 mi Calm Calm - N/A   Overcast
7:15 AM 59.0 °F 57.2 °F 94% 30.01 in 10.0 mi ESE 4.6 mph - N/A   Overcast
7:20 AM 59.0 °F 57.2 °F 94% 30.01 in 10.0 mi East 5.8 mph - N/A   Overcast
7:38 AM 59.2 °F 57.0 °F 93% 30.01 in 10.0 mi East 6.9 mph - N/A   Overcast
7:56 AM 59.9 °F 57.6 °F 92% 30.01 in 10.0 mi East 6.9 mph - N/A   Overcast
8:15 AM 59.9 °F 57.2 °F 91% 30.01 in 10.0 mi East 6.9 mph - N/A   Overcast
8:35 AM 59.9 °F 57.4 °F 91% 30.01 in 10.0 mi Calm Calm - N/A   Overcast
8:59 AM 60.3 °F 56.7 °F 88% 30.01 in 10.0 mi East 4.6 mph - N/A   Mostly Cloudy
9:17 AM 62.1 °F 56.5 °F 82% 30.02 in 10.0 mi ENE 5.8 mph - N/A   Mostly Cloudy
9:35 AM 61.9 °F 55.4 °F 79% 30.02 in 10.0 mi East 8.1 mph - N/A   Overcast
9:36 AM 61.9 °F 55.2 °F 79% 30.02 in 10.0 mi East 8.1 mph - N/A   Overcast
9:55 AM 63.0 °F 55.0 °F 75% 30.03 in 10.0 mi ENE 4.6 mph - N/A   Mostly Cloudy
10:15 AM 64.0 °F 54.0 °F 70% 30.03 in 10.0 mi East 4.6 mph - N/A   Mostly Cloudy
10:38 AM 64.2 °F 53.2 °F 67% 30.03 in 10.0 mi East 5.8 mph - N/A   Overcast
10:56 AM 65.3 °F 52.9 °F 64% 30.03 in 10.0 mi East 5.8 mph - N/A   Mostly Cloudy
11:15 AM 65.5 °F 53.4 °F 65% 30.03 in 10.0 mi ESE 3.5 mph - N/A   Mostly Cloudy
11:16 AM 65.3 °F 53.6 °F 66% 30.03 in 10.0 mi East 3.5 mph - N/A   Mostly Cloudy
11:35 AM 65.3 °F 54.1 °F 67% 30.03 in 10.0 mi Calm Calm - N/A   Overcast
11:58 AM 67.6 °F 55.0 °F 64% 30.03 in 10.0 mi East 4.6 mph - N/A   Overcast
12:24 PM 68.0 °F 55.4 °F 64% 30.03 in 10.0 mi East 5.8 mph - N/A   Overcast
12:43 PM 68.0 °F 55.4 °F 64% 30.02 in 10.0 mi ENE 5.8 mph - N/A   Overcast
1:03 PM 69.8 °F 55.4 °F 60% 30.01 in 10.0 mi NE 8.1 mph - N/A   Mostly Cloudy
1:24 PM 69.8 °F 55.4 °F 60% 30.01 in 10.0 mi North 5.8 mph - N/A   Scattered Clouds
1:44 PM 71.6 °F 53.6 °F 53% 30.00 in 10.0 mi North 4.6 mph - N/A   Scattered Clouds
2:03 PM 71.6 °F 55.4 °F 57% 30.00 in 10.0 mi NNE 4.6 mph - N/A   Mostly Cloudy
2:23 PM 71.6 °F 55.4 °F 57% 30.00 in 10.0 mi ENE 5.8 mph - N/A   Overcast
2:43 PM 73.4 °F 55.4 °F 53% 30.00 in 10.0 mi ENE 5.8 mph - N/A   Mostly Cloudy
2:45 PM 73.2 °F 55.4 °F 54% 30.00 in 10.0 mi East 8.1 mph - N/A   Mostly Cloudy
2:55 PM 71.2 °F 55.0 °F 56% 30.00 in 10.0 mi SE 3.5 mph - N/A   Mostly Cloudy
2:56 PM 71.1 °F 55.0 °F 57% 30.00 in 10.0 mi ESE 4.6 mph - N/A   Mostly Cloudy
3:15 PM 70.9 °F 55.6 °F 58% 30.00 in 10.0 mi East 4.6 mph - N/A   Overcast
3:39 PM 73.0 °F 55.4 °F 54% 29.99 in 10.0 mi North 4.6 mph - N/A   Overcast
3:57 PM 72.0 °F 56.1 °F 57% 30.00 in 10.0 mi ENE 3.5 mph - N/A   Overcast
4:15 PM 72.7 °F 56.1 °F 56% 30.00 in 10.0 mi North 4.6 mph - N/A   Overcast
4:16 PM 72.7 °F 56.1 °F 56% 30.00 in 10.0 mi North 3.5 mph - N/A   Overcast
4:35 PM 71.8 °F 56.3 °F 58% 30.00 in 10.0 mi NNE 4.6 mph - N/A   Overcast
4:36 PM 71.8 °F 56.5 °F 58% 30.00 in 10.0 mi ENE 5.8 mph - N/A   Overcast
4:55 PM 71.2 °F 56.8 °F 60% 29.99 in 10.0 mi NE 4.6 mph - N/A   Overcast
5:00 PM 71.6 °F 56.7 °F 59% 29.99 in 10.0 mi Calm Calm - N/A   Overcast
5:18 PM 71.8 °F 56.8 °F 59% 29.99 in 10.0 mi East 3.5 mph - N/A   Overcast
5:36 PM 72.7 °F 56.8 °F 57% 29.99 in 10.0 mi East 5.8 mph - N/A   Mostly Cloudy
5:55 PM 72.1 °F 56.7 °F 58% 29.99 in 10.0 mi East 3.5 mph - N/A   Scattered Clouds
5:56 PM 72.3 °F 56.8 °F 58% 29.99 in 10.0 mi East 5.8 mph - N/A   Scattered Clouds
6:15 PM 72.7 °F 56.8 °F 57% 29.98 in 10.0 mi ENE 5.8 mph - N/A   Scattered Clouds
6:39 PM 72.5 °F 55.4 °F 55% 29.98 in 10.0 mi ENE 4.6 mph - N/A   Clear
6:57 PM 71.8 °F 56.5 °F 58% 29.98 in 10.0 mi East 3.5 mph - N/A   Mostly Cloudy
7:15 PM 71.8 °F 56.5 °F 58% 29.98 in 10.0 mi East 4.6 mph - N/A   Mostly Cloudy
7:16 PM 71.8 °F 56.5 °F 58% 29.98 in 10.0 mi East 4.6 mph - N/A   Mostly Cloudy
7:35 PM 71.6 °F 56.3 °F 58% 29.97 in 10.0 mi East 5.8 mph - N/A   Mostly Cloudy
7:36 PM 71.6 °F 56.5 °F 59% 29.97 in 10.0 mi East 4.6 mph - N/A   Mostly Cloudy
7:55 PM 70.0 °F 56.5 °F 62% 29.98 in 10.0 mi ESE 4.6 mph - N/A   Mostly Cloudy
8:00 PM 69.4 °F 57.2 °F 65% 29.98 in 10.0 mi ESE 5.8 mph - N/A   Mostly Cloudy
8:18 PM 68.0 °F 57.6 °F 69% 29.98 in 10.0 mi Calm Calm - N/A   Scattered Clouds
8:36 PM 67.1 °F 57.6 °F 71% 29.98 in 10.0 mi Calm Calm - N/A   Mostly Cloudy
8:55 PM 66.4 °F 57.6 °F 73% 29.98 in 10.0 mi Calm Calm - N/A   Scattered Clouds
9:15 PM 64.9 °F 58.1 °F 78% 29.98 in 10.0 mi Calm Calm - N/A   Clear
9:16 PM 64.9 °F 58.1 °F 78% 29.98 in 10.0 mi Calm Calm - N/A   Clear
9:39 PM 64.2 °F 58.1 °F 80% 29.99 in 10.0 mi Calm Calm - N/A   Clear
9:57 PM 63.5 °F 59.7 °F 87% 29.99 in 10.0 mi Calm Calm - N/A   Clear
10:15 PM 63.1 °F 57.7 °F 83% 29.99 in 10.0 mi East 3.5 mph - N/A   Clear
10:35 PM 62.8 °F 57.0 °F 81% 29.99 in 10.0 mi Calm Calm - N/A   Clear
10:55 PM 62.4 °F 57.0 °F 82% 29.99 in 10.0 mi Calm Calm - N/A   Clear
11:18 PM 61.5 °F 56.7 °F 84% 29.99 in 10.0 mi Calm Calm - N/A   Clear
11:36 PM 61.0 °F 55.8 °F 83% 29.99 in 10.0 mi Calm Calm - N/A   Clear
11:55 PM 60.1 °F 57.7 °F 92% 29.99 in 10.0 mi Calm Calm - N/A   Clear